When you browse on this site, cookies collect data to enhance your experience and personalize the content and advertising you see.
Visit our Privacy Policy to learn more. By continuing to use the site, you agree to this use of cookies and data.
  • In Schweiz
  • Länderverzeichnis
  • Für 7 Tage
  • Wassertemperatur
  • Satellitenkarten
  • Wetterkarte
  • Widgets
  • user-avatar
    Anmelden

    Stündliche Wetter Djelfa

    Heute, 21 März, Donnerstag

    Zeit Temperatur Niederschläge Wind Luftdruck Luftfeuchtigkeit
    00:00 -1°C° 0 mm 7 m/S 664 mmHg 83%
    01:00 -1°C° 0 mm 7 m/S 664 mmHg 85%
    02:00 -2°C° 0 mm 8 m/S 663 mmHg 88%
    03:00 -2°C° 0 mm 8 m/S 663 mmHg 91%
    04:00 -2°C° 0 mm 8 m/S 663 mmHg 90%
    05:00 -3°C° 0 mm 9 m/S 663 mmHg 90%
    06:00 -3°C° 0 mm 9 m/S 662 mmHg 87%
    07:00 -2°C° 0.2 mm 10 m/S 662 mmHg 85%
    08:00 0°C° 0.2 mm 10 m/S 662 mmHg 82%
    09:00 +1°C° 0.2 mm 10 m/S 662 mmHg 79%
    10:00 +2°C° 0.3 mm 11 m/S 662 mmHg 76%
    11:00 +3°C° 0.3 mm 12 m/S 662 mmHg 72%
    12:00 +4°C° 0.3 mm 12 m/S 662 mmHg 69%
    13:00 +4°C° 0.7 mm 12 m/S 662 mmHg 71%
    14:00 +4°C° 0.7 mm 11 m/S 661 mmHg 73%
    15:00 +4°C° 0.7 mm 11 m/S 661 mmHg 75%
    16:00 +5°C° 0.2 mm 10 m/S 661 mmHg 76%
    17:00 +5°C° 0.2 mm 10 m/S 662 mmHg 77%
    18:00 +5°C° 0.2 mm 10 m/S 662 mmHg 78%
    19:00 +5°C° 0 mm 9 m/S 662 mmHg 82%
    20:00 +3°C° 0 mm 9 m/S 662 mmHg 85%
    21:00 +3°C° 0 mm 9 m/S 663 mmHg 89%
    22:00 +3°C° 0 mm 9 m/S 663 mmHg 90%
    23:00 +3°C° 0 mm 9 m/S 663 mmHg 90%

    Morgen, 22 März, Freitag

    Zeit Temperatur Niederschläge Wind Luftdruck Luftfeuchtigkeit
    00:00 +3°C° 0 mm 9 m/S 663 mmHg 91%
    01:00 +3°C° 0 mm 9 m/S 663 mmHg 91%
    02:00 +2°C° 0 mm 8 m/S 663 mmHg 92%
    03:00 +2°C° 0 mm 8 m/S 663 mmHg 92%
    04:00 +2°C° 0 mm 8 m/S 663 mmHg 93%
    05:00 +2°C° 0 mm 8 m/S 663 mmHg 93%
    06:00 +2°C° 0 mm 8 m/S 663 mmHg 94%
    07:00 +4°C° 0 mm 8 m/S 664 mmHg 89%
    08:00 +4°C° 0 mm 8 m/S 664 mmHg 84%
    09:00 +5°C° 0 mm 8 m/S 664 mmHg 80%
    10:00 +6°C° 0 mm 8 m/S 664 mmHg 74%
    11:00 +7°C° 0 mm 8 m/S 665 mmHg 68%
    12:00 +10°C° 0 mm 8 m/S 665 mmHg 63%
    13:00 +10°C° 0 mm 9 m/S 665 mmHg 61%
    14:00 +10°C° 0 mm 9 m/S 664 mmHg 60%
    15:00 +10°C° 0 mm 9 m/S 664 mmHg 59%
    16:00 +8°C° 0.1 mm 9 m/S 664 mmHg 65%
    17:00 +7°C° 0.1 mm 8 m/S 664 mmHg 72%
    18:00 +6°C° 0.1 mm 7 m/S 664 mmHg 78%
    19:00 +7°C° 0 mm 6 m/S 665 mmHg 81%
    20:00 +6°C° 0 mm 5 m/S 665 mmHg 85%
    21:00 +6°C° 0 mm 4 m/S 665 mmHg 89%
    22:00 +5°C° 0 mm 4 m/S 665 mmHg 91%
    23:00 +5°C° 0 mm 4 m/S 665 mmHg 93%

    übermorgen, 23 März, Samstag

    Zeit Temperatur Niederschläge Wind Luftdruck Luftfeuchtigkeit
    00:00 +5°C° 0 mm 3 m/S 665 mmHg 95%
    01:00 +5°C° 0 mm 3 m/S 665 mmHg 94%
    02:00 +4°C° 0 mm 3 m/S 665 mmHg 94%
    03:00 +4°C° 0 mm 3 m/S 665 mmHg 94%
    04:00 +4°C° 0 mm 3 m/S 665 mmHg 93%
    05:00 +4°C° 0 mm 3 m/S 665 mmHg 92%
    06:00 +4°C° 0 mm 4 m/S 665 mmHg 91%
    07:00 +5°C° 0 mm 4 m/S 666 mmHg 81%
    08:00 +6°C° 0 mm 4 m/S 666 mmHg 70%
    09:00 +7°C° 0 mm 4 m/S 667 mmHg 60%
    10:00 +9°C° 0 mm 3 m/S 667 mmHg 53%
    11:00 +11°C° 0 mm 3 m/S 667 mmHg 46%
    12:00 +12°C° 0 mm 3 m/S 667 mmHg 39%
    13:00 +12°C° 0 mm 3 m/S 666 mmHg 38%
    14:00 +13°C° 0 mm 3 m/S 666 mmHg 37%
    15:00 +14°C° 0 mm 3 m/S 666 mmHg 36%
    16:00 +13°C° 0 mm 3 m/S 666 mmHg 39%
    17:00 +13°C° 0 mm 3 m/S 666 mmHg 42%
    18:00 +12°C° 0 mm 4 m/S 666 mmHg 45%
    19:00 +11°C° 0 mm 4 m/S 666 mmHg 48%
    20:00 +11°C° 0 mm 4 m/S 667 mmHg 52%
    21:00 +10°C° 0 mm 3 m/S 667 mmHg 56%
    22:00 +10°C° 0 mm 4 m/S 667 mmHg 60%
    23:00 +8°C° 0 mm 4 m/S 667 mmHg 63%

    24 März, Sonntag

    Zeit Temperatur Niederschläge Wind Luftdruck Luftfeuchtigkeit
    00:00 +8°C° 0 mm 4 m/S 667 mmHg 67%
    01:00 +7°C° 0 mm 4 m/S 667 mmHg 70%
    02:00 +7°C° 0 mm 4 m/S 666 mmHg 73%
    03:00 +7°C° 0 mm 4 m/S 666 mmHg 76%
    04:00 +7°C° 0 mm 4 m/S 666 mmHg 74%
    05:00 +6°C° 0 mm 4 m/S 667 mmHg 73%
    06:00 +6°C° 0 mm 5 m/S 667 mmHg 71%
    07:00 +7°C° 0 mm 5 m/S 667 mmHg 67%
    08:00 +8°C° 0 mm 5 m/S 668 mmHg 63%
    09:00 +9°C° 0 mm 6 m/S 668 mmHg 59%
    10:00 +10°C° 0 mm 6 m/S 668 mmHg 54%
    11:00 +12°C° 0 mm 5 m/S 668 mmHg 50%
    12:00 +13°C° 0 mm 5 m/S 668 mmHg 46%
    13:00 +13°C° 0 mm 5 m/S 668 mmHg 44%
    14:00 +14°C° 0 mm 5 m/S 667 mmHg 42%
    15:00 +14°C° 0 mm 5 m/S 667 mmHg 40%
    16:00 +13°C° 0 mm 5 m/S 667 mmHg 43%
    17:00 +12°C° 0 mm 5 m/S 667 mmHg 47%
    18:00 +10°C° 0 mm 5 m/S 667 mmHg 51%
    19:00 +10°C° 0 mm 5 m/S 667 mmHg 55%
    20:00 +9°C° 0 mm 5 m/S 667 mmHg 59%
    21:00 +8°C° 0 mm 5 m/S 667 mmHg 63%
    22:00 +8°C° 0 mm 5 m/S 667 mmHg 67%
    23:00 +7°C° 0 mm 4 m/S 667 mmHg 71%

    25 März, Montag

    Zeit Temperatur Niederschläge Wind Luftdruck Luftfeuchtigkeit
    00:00 +7°C° 0 mm 4 m/S 667 mmHg 75%
    01:00 +7°C° 0 mm 3 m/S 667 mmHg 78%
    02:00 +7°C° 0 mm 3 m/S 666 mmHg 81%
    03:00 +5°C° 0 mm 3 m/S 666 mmHg 84%
    04:00 +6°C° 0 mm 2 m/S 666 mmHg 86%
    05:00 +6°C° 0 mm 1 m/S 666 mmHg 88%
    06:00 +6°C° 0 mm 1 m/S 666 mmHg 90%
    07:00 +8°C° 0 mm 1 m/S 666 mmHg 79%
    08:00 +8°C° 0 mm 2 m/S 667 mmHg 69%
    09:00 +10°C° 0 mm 2 m/S 667 mmHg 58%
    10:00 +12°C° 0 mm 2 m/S 667 mmHg 52%
    11:00 +14°C° 0 mm 2 m/S 667 mmHg 45%
    12:00 +15°C° 0 mm 2 m/S 667 mmHg 39%
    13:00 +15°C° 0 mm 2 m/S 667 mmHg 36%
    14:00 +16°C° 0 mm 2 m/S 667 mmHg 34%
    15:00 +17°C° 0 mm 2 m/S 666 mmHg 32%
    16:00 +16°C° 0 mm 2 m/S 666 mmHg 34%
    17:00 +16°C° 0 mm 2 m/S 666 mmHg 35%
    18:00 +15°C° 0 mm 2 m/S 666 mmHg 37%
    19:00 +13°C° 0 mm 3 m/S 666 mmHg 41%
    20:00 +12°C° 0 mm 3 m/S 666 mmHg 44%
    21:00 +12°C° 0 mm 3 m/S 667 mmHg 47%
    22:00 +11°C° 0 mm 3 m/S 666 mmHg 49%
    23:00 +10°C° 0 mm 2 m/S 666 mmHg 52%

    26 März, Dienstag

    Zeit Temperatur Niederschläge Wind Luftdruck Luftfeuchtigkeit
    00:00 +10°C° 0 mm 2 m/S 666 mmHg 54%
    01:00 +9°C° 0 mm 2 m/S 666 mmHg 56%
    02:00 +10°C° 0 mm 1 m/S 665 mmHg 57%
    03:00 +9°C° 0 mm 1 m/S 665 mmHg 59%
    04:00 +9°C° 0 mm 1 m/S 665 mmHg 60%
    05:00 +9°C° 0 mm 1 m/S 665 mmHg 61%
    06:00 +8°C° 0 mm 1 m/S 665 mmHg 62%
    07:00 +10°C° 0 mm 1 m/S 666 mmHg 55%
    08:00 +12°C° 0 mm 2 m/S 666 mmHg 48%
    09:00 +14°C° 0 mm 2 m/S 667 mmHg 41%
    10:00 +16°C° 0 mm 3 m/S 667 mmHg 37%
    11:00 +17°C° 0 mm 3 m/S 667 mmHg 33%
    12:00 +18°C° 0 mm 3 m/S 667 mmHg 29%
    13:00 +18°C° 0 mm 4 m/S 667 mmHg 28%
    14:00 +19°C° 0 mm 4 m/S 667 mmHg 27%
    15:00 +19°C° 0 mm 5 m/S 666 mmHg 26%
    16:00 +17°C° 0 mm 5 m/S 666 mmHg 28%
    17:00 +16°C° 0 mm 5 m/S 666 mmHg 30%
    18:00 +15°C° 0 mm 5 m/S 666 mmHg 32%
    19:00 +15°C° 0 mm 6 m/S 666 mmHg 35%
    20:00 +14°C° 0 mm 6 m/S 666 mmHg 37%
    21:00 +13°C° 0 mm 6 m/S 666 mmHg 39%
    22:00 +13°C° 0 mm 6 m/S 666 mmHg 42%
    23:00 +12°C° 0 mm 5 m/S 666 mmHg 44%
    Mehr zeigen